Weather in Formia

Italy     41°15′30″N   13°36′40″E
temp.,
°C
wind,
m/s
gust,
m/s
humid.,
%
clouds,
%
prec.,
mm/h
press.,
hPa
HPBL,
m
8 may, sat
sat823:00+15wnw22666 0.0 101524
02:00+15nnw117221 0.0 101521
05:00+14ne227735 0.0 101556
08:00+16ne22711 0.0 1016152
11:00+18s22645 0.0 1017637
14:00+19sw336440 0.0 1017575
17:00+18w33695 0.0 1017356
20:00+16w11805 0.0 101820
9 may, sun
sun923:00+16ne11772 0.0 101911
02:00+15ene11780 0.0 101916
05:00+15ene22820 0.0 101959
08:00+17e12760 0.0 1019155
11:00+19sse32690 0.0 1019539
14:00+19s33715 0.0 1020457
17:00+19sse337269 0.0 1019319
20:00+16se228416 0.0 101945
10 may, mon
mon1023:00+15e2276100 0.0 101923
02:00+15ene226897 0.0 101935
05:00+15ene22635 0.0 101943
08:00+17ene22590 0.0 101990
11:00+20sse22543 0.0 1019438
14:00+20ssw215454 0.0 1018439
17:00+20sw22565 0.0 1017257
20:00+17n1166100 0.0 101611
11 may, tue
tue1123:00+17ene115659 0.0 101711
02:00+17ne22550 0.0 101612
05:00+16ene225774 0.0 101429
08:00+19ene11575 0.0 101460
11:00+21ssw22515 0.0 1015317
14:00+21wsw22510 0.0 1014473
17:00+20sw3360100 0.0 1012330
20:00+17sw228180 0.1 101132
12 may, wed
wed1223:00+17wsw578651 2.2 1011363
02:00+14wnw610840 2.8 1011523
05:00+12wnw688488 0.4 1012628
08:00+14w577879 0.8 1012855
11:00+15w797888 1.4 10131072
14:00+15wsw7979100 2.4 10121178
17:00+15w677361 0.4 1011985
20:00+14w678052 0.5 1012546